User: anonymous   Login
Location: Unspecified
(0.0000°N, 0.0000°E)
Time: 05:21:20
(UTC+02:00)
Language:

Cosmos 1437 - Orbit

View from above orbital plane
View from above orbital plane
View from above satellite
View from above satellite

Ground track
Ground track

The orbit data is extracted from the following two-line orbital elements,

1 13770U 83003A   17086.89585810 +.00011251 +00000-0 +19655-3 0  9997
2 13770 081.1562 248.2542 0006886 180.2733 179.8511 15.50495571873644
Epoch (UTC): 27 March 2017 21:30:02
Eccentricity: 0.0006886
inclination: 81.1562°
perigee height: 410 km
apogee height: 420 km
right ascension of ascending node: 248.2542°
argument of perigee: 180.2733°
revolutions per day: 15.50495571
mean anomaly at epoch: 179.8511°
orbit number at epoch: 87364

The dashed part of the orbit path shows where the satellite is in the earth's shadow,  

DLR